Temp
70 74 73 72 62 57 51 62 66 71 68 72 79 75 71 73 71 61 78 82 82 77 78 80 80 80 80 79 79 79 78 79 79 79 79 79 79 79 79 79 80 80 81 81 81 81 81 81 81
71 79 72 64 55 49 54 64 68 67 70 76 77 76 74 70 77 79 78 84 82 78 76 79 80 80 80 79 79 78 78 79 79 79 79 79 79 79 79 79 80 80 81 81 81 81 81 81 81
74 76 64 58 50 50 55 64 69 71 75 73 71 76 73 71 80 79 83 83 80 75 76 78 80 80 80 79 79 78 78 79 79 79 79 79 79 79 79 79 80 81 81 81 81 81 80 80 80
72 68 64 55 50 60 62 69 76 68 73 75 75 69 75 78 81 82 86 84 81 76 76 79 79 79 79 79 79 78 79 79 79 79 79 79 79 78 78 79 79 80 81 81 80 80 80 80 80
69 61 53 47 53 61 70 74 73 73 72 73 76 69 70 77 84 84 83 84 79 75 76 78 79 79 80 80 79 79 79 79 79 79 79 79 78 78 78 79 79 80 80 80 80 79 79 79 79
63 60 50 46 54 66 71 75 76 71 71 73 72 68 68 75 76 79 84 82 81 76 76 77 79 79 79 79 79 78 78 78 79 79 79 79 78 78 78 79 79 79 79 79 79 78 78 78 78
58 54 48 50 57 63 71 75 72 74 72 72 76 66 69 71 78 81 82 84 81 78 75 76 76 78 79 78 78 78 78 78 78 78 78 78 78 78 78 78 78 78 78 78 78 78 78 78 78
64 58 49 50 56 60 71 74 73 77 76 83 85 69 64 68 78 80 81 80 77 77 75 75 75 76 76 77 78 78 78 78 78 78 78 78 78 78 78 77 78 78 78 78 78 78 77 77 77
68 54 48 53 57 64 72 72 80 82 80 82 84 80 76 75 77 80 78 79 76 78 74 74 75 75 75 76 78 78 79 78 78 78 78 76 73 74 76 76 78 78 78 78 78 77 77 77 77
63 51 56 65 66 66 70 70 73 77 77 76 74 78 76 76 72 77 78 73 74 74 75 74 74 73 74 80 76 75 76 75 74 74 74 72 72 71 76 76 78 78 78 78 77 77 77 77 73
59 58 66 72 73 66 71 72 76 73 70 75 71 73 76 75 74 77 78 79 77 75 78 77 75 73 75 76 74 73 74 74 73 73 73 71 72 71 72 70 73 72 76 72 74 75 74 73 72
58 69 70 75 72 69 70 73 73 73 72 79 80 75 76 76 76 78 78 78 78 76 77 77 72 72 72 75 73 73 73 73 73 73 73 71 69 69 70 71 71 70 71 69 69 70 72 72 73
63 70 73 75 72 71 74 71 71 72 78 81 82 82 76 75 75 77 79 81 81 79 79 78 75 73 72 72 71 71 70 71 72 72 73 71 69 69 71 71 71 70 69 69 67 68 70 71 73
67 69 71 70 69 67 69 71 72 76 80 79 81 78 80 81 83 76 74 74 78 78 79 79 77 73 74 75 70 68 70 71 70 70 70 70 69 69 70 69 71 70 69 70 71 70 70 72 73
70 64 67 68 67 66 71 67 67 77 78 78 75 77 78 78 80 82 76 73 77 76 78 77 77 71 72 74 74 72 71 72 70 68 69 69 67 67 69 70 70 71 73 71 71 71 72 72 72
63 59 53 65 70 72 71 59 71 75 73 74 76 76 78 76 78 78 78 75 73 75 75 78 82 74 72 73 77 73 74 71 70 68 67 69 68 67 69 68 69 71 71 69 70 73 73 73 71
55 50 55 62 69 69 67 62 71 74 73 72 71 73 76 75 75 74 77 77 74 74 75 76 78 76 74 73 72 73 73 72 71 67 66 67 68 70 68 66 68 69 71 71 70 70 70 68 69
51 52 54 57 69 64 64 66 68 73 70 71 69 71 74 75 77 77 74 75 76 76 75 77 78 77 75 73 70 72 70 68 65 64 64 68 68 70 66 64 67 69 70 69 68 68 67 69 67
59 58 56 62 68 62 58 60 65 71 65 68 69 69 69 72 77 76 75 74 72 69 69 76 76 75 74 69 69 69 69 67 64 65 68 69 69 70 66 66 68 69 68 71 70 69 68 66 66
62 57 56 62 68 61 61 62 66 67 67 69 69 69 70 69 72 75 73 70 70 71 71 70 76 74 76 77 69 69 69 68 70 68 69 69 68 69 68 67 68 67 69 69 69 68 66 65 65
60 55 57 58 63 62 58 55 58 66 67 71 71 71 70 70 72 73 73 69 69 68 69 70 72 73 74 76 68 67 67 68 65 64 65 66 69 70 71 70 70 69 69 67 67 67 66 63 63
54 66 64 62 55 47 58 43 53 61 63 67 70 69 71 71 73 75 72 67 69 72 73 73 71 73 73 71 71 69 67 68 68 72 71 67 69 72 73 71 71 69 68 67 67 68 67 66 64
60 66 62 60 52 47 51 46 52 59 60 64 69 73 71 71 76 74 70 73 73 76 72 71 70 72 74 71 74 73 67 66 69 67 67 68 69 71 74 71 70 68 67 67 68 67 67 66 65
69 61 56 51 48 44 48 48 53 54 60 63 69 72 71 72 73 72 73 72 68 71 73 71 68 70 71 71 68 69 69 67 68 65 68 70 71 71 73 73 70 69 68 68 68 68 67 66 66
62 53 40 38 38 42 51 47 51 60 63 64 65 66 66 69 70 66 67 67 66 67 67 68 68 67 70 71 69 69 69 68 70 69 71 72 69 66 71 71 69 68 68 68 67 67 66 66 65
55 51 41 32 32 42 51 42 51 59 63 65 67 64 64 65 65 69 66 66 67 68 66 69 66 66 68 70 70 69 69 69 66 68 68 74 74 74 71 71 70 69 69 69 67 66 65 66 65
53 49 54 43 43 37 43 49 55 58 59 61 62 61 60 60 62 64 66 69 68 69 68 69 66 66 68 69 68 68 68 69 68 67 67 67 66 69 67 70 69 68 69 68 66 64 65 64 64
55 57 46 43 35 30 39 42 44 49 53 58 59 57 57 58 61 64 63 63 64 65 65 68 69 68 67 67 67 67 67 68 67 65 65 66 67 68 66 68 69 67 67 66 64 62 63 63 62
47 46 48 41 38 31 28 36 49 48 52 54 54 57 55 59 59 60 63 61 62 62 63 64 64 65 65 66 66 66 65 66 65 65 64 64 63 64 67 68 67 66 65 64 62 61 63 63 61
50 45 41 30 33 33 34 34 53 53 51 52 52 55 59 58 57 59 60 62 59 58 59 59 61 62 64 64 65 66 66 66 65 64 63 64 64 64 64 65 65 65 65 62 62 62 65 63 62
MSLP
1010.59 1010.28 1010.38 1010.77 1011.94 1012.08 1011.49 1009.87 1008.42 1008.28 1008.82 1009.05 1009.20 1008.89 1008.92 1009.05 1009.53 1010.20 1009.83 1010.20 1011.16 1012.05 1012.03 1011.98 1012.34 1012.22 1012.47 1012.87 1013.11 1013.29 1013.57 1013.63 1013.68 1013.89 1014.03 1014.11 1014.32 1014.49 1014.66 1014.85 1014.98 1015.06 1015.11 1015.29 1015.38 1015.35 1015.40 1015.63 1015.96
1010.64 1010.16 1010.67 1011.39 1012.12 1012.45 1011.19 1009.46 1008.57 1008.26 1008.79 1008.91 1009.10 1009.27 1009.42 1009.32 1008.93 1008.59 1008.99 1009.32 1010.75 1011.87 1012.06 1012.24 1012.59 1012.39 1012.58 1012.95 1013.30 1013.59 1013.73 1014.02 1014.03 1014.09 1014.36 1014.32 1014.43 1014.64 1014.88 1015.04 1015.10 1015.22 1015.38 1015.60 1015.76 1015.69 1015.57 1015.75 1016.08
1010.60 1010.59 1011.67 1012.08 1012.31 1012.14 1010.68 1008.76 1008.42 1009.44 1008.70 1008.51 1008.50 1009.21 1009.15 1009.17 1009.10 1009.39 1009.02 1009.49 1010.31 1011.35 1011.76 1012.33 1012.98 1012.83 1012.87 1013.15 1013.53 1013.87 1014.07 1014.38 1014.42 1014.41 1014.75 1014.88 1014.84 1014.91 1015.12 1015.33 1015.48 1015.47 1015.52 1015.74 1016.00 1016.12 1016.01 1016.10 1016.34
1010.75 1011.31 1012.14 1012.25 1012.11 1010.75 1009.62 1008.26 1007.05 1009.16 1009.08 1008.58 1008.25 1009.09 1009.42 1009.27 1009.26 1009.20 1009.09 1009.73 1010.77 1011.52 1011.66 1012.08 1012.37 1013.07 1013.33 1013.63 1013.89 1013.98 1014.40 1014.67 1014.60 1014.75 1014.96 1015.19 1015.28 1015.31 1015.50 1015.76 1015.87 1015.90 1016.02 1015.99 1016.14 1016.30 1016.29 1016.39 1016.74
1011.10 1012.04 1012.66 1012.59 1011.49 1010.19 1008.67 1007.31 1006.40 1007.30 1007.85 1008.28 1008.27 1009.31 1009.66 1009.79 1009.37 1009.13 1009.52 1009.74 1010.75 1011.93 1012.26 1012.29 1012.51 1012.80 1013.40 1013.80 1013.90 1014.13 1014.39 1014.85 1014.95 1015.06 1015.23 1015.62 1015.82 1015.80 1015.87 1015.94 1016.07 1016.24 1016.34 1016.46 1016.47 1016.66 1016.58 1016.54 1016.85
1011.86 1012.59 1013.11 1012.76 1011.30 1009.56 1008.06 1006.38 1005.75 1006.32 1007.46 1008.08 1008.57 1009.39 1010.40 1011.03 1009.72 1009.89 1009.97 1010.20 1010.81 1011.03 1011.88 1012.36 1012.78 1013.23 1013.31 1013.80 1014.15 1014.35 1014.64 1015.00 1015.29 1015.41 1015.58 1015.84 1016.17 1016.20 1016.29 1016.43 1016.47 1016.54 1016.71 1016.69 1016.77 1016.93 1017.07 1016.99 1017.08
1012.08 1012.75 1012.83 1012.18 1011.03 1009.49 1007.41 1005.66 1005.51 1005.98 1006.73 1007.55 1008.19 1009.51 1010.88 1010.69 1009.90 1009.32 1010.00 1010.95 1011.69 1011.41 1011.74 1012.44 1012.75 1013.17 1013.39 1013.88 1014.20 1014.66 1014.87 1014.94 1015.25 1015.39 1015.52 1015.67 1016.08 1016.20 1016.18 1016.34 1016.50 1016.69 1016.76 1016.79 1016.78 1016.80 1017.05 1017.17 1017.28
1011.46 1012.33 1012.34 1011.63 1010.77 1009.12 1006.93 1005.60 1005.05 1004.97 1005.64 1006.51 1006.46 1008.75 1010.81 1010.02 1008.14 1008.76 1010.07 1010.93 1012.11 1011.62 1011.90 1012.20 1012.49 1012.88 1012.97 1013.46 1013.80 1014.17 1014.55 1014.71 1014.89 1015.12 1015.28 1015.56 1015.90 1016.04 1016.09 1016.25 1016.42 1016.51 1016.67 1016.80 1016.78 1016.90 1016.96 1017.02 1017.17
1010.89 1011.92 1012.05 1011.26 1009.95 1008.74 1007.26 1006.24 1005.10 1004.97 1005.38 1005.87 1005.95 1007.29 1008.82 1008.92 1008.60 1009.04 1010.37 1010.92 1011.35 1011.70 1011.63 1012.00 1012.43 1012.62 1013.07 1013.25 1013.74 1014.22 1014.51 1014.61 1014.88 1015.30 1015.48 1015.60 1015.71 1015.88 1015.78 1015.85 1016.07 1016.28 1016.60 1016.84 1016.96 1016.99 1017.08 1017.17 1017.14
1010.73 1011.56 1011.00 1010.05 1009.05 1008.43 1007.45 1006.51 1005.93 1005.37 1005.76 1006.13 1006.78 1007.71 1009.30 1009.53 1009.60 1009.98 1010.55 1010.81 1011.24 1012.43 1012.30 1012.22 1012.22 1012.85 1013.21 1013.22 1013.42 1013.74 1014.07 1014.53 1014.83 1015.22 1015.67 1015.76 1015.87 1015.93 1015.79 1015.94 1016.16 1016.20 1016.33 1016.61 1016.82 1017.02 1017.17 1017.23 1017.24
1010.19 1010.31 1009.51 1008.60 1007.97 1007.89 1007.25 1006.39 1005.99 1005.70 1006.10 1006.43 1007.35 1008.31 1009.14 1009.57 1009.60 1010.13 1010.30 1010.02 1009.71 1011.61 1012.34 1012.20 1012.56 1012.34 1012.69 1012.56 1012.68 1013.42 1013.93 1014.47 1014.36 1014.93 1015.28 1015.46 1015.62 1015.82 1015.92 1016.10 1016.23 1016.53 1016.63 1016.76 1016.84 1016.96 1017.16 1017.31 1017.32
1009.78 1009.05 1008.77 1007.74 1007.05 1007.14 1006.81 1006.18 1006.38 1006.38 1006.37 1006.07 1006.38 1007.46 1008.62 1008.99 1008.99 1009.78 1010.03 1009.55 1010.17 1011.21 1011.97 1011.61 1011.86 1012.37 1012.37 1012.17 1012.78 1012.86 1013.09 1013.77 1014.08 1014.49 1014.67 1014.93 1015.42 1015.64 1015.73 1015.73 1015.95 1016.23 1016.43 1016.65 1016.70 1016.81 1016.80 1016.99 1017.08
1009.40 1008.48 1007.72 1006.82 1006.76 1006.52 1006.09 1006.15 1006.32 1006.29 1006.03 1006.10 1006.26 1007.36 1008.28 1008.72 1009.00 1009.07 1008.84 1008.40 1009.74 1010.47 1010.83 1010.90 1011.64 1011.99 1011.91 1012.37 1012.59 1013.03 1013.21 1013.80 1014.00 1013.92 1014.39 1014.74 1015.04 1015.37 1015.28 1015.33 1015.51 1015.93 1016.28 1016.40 1016.53 1016.66 1016.61 1016.68 1016.69
1008.42 1008.08 1007.28 1006.54 1006.30 1005.85 1005.84 1005.91 1006.03 1006.03 1005.60 1006.07 1006.41 1006.68 1006.66 1007.12 1007.58 1008.89 1008.41 1008.49 1009.16 1009.69 1009.91 1010.38 1011.01 1011.35 1011.68 1012.32 1012.62 1013.04 1013.09 1013.46 1013.68 1013.77 1014.13 1014.34 1014.37 1014.54 1014.87 1014.93 1015.13 1015.32 1015.60 1015.92 1016.21 1016.46 1016.75 1016.61 1016.41
1008.34 1008.21 1007.26 1006.60 1006.16 1005.92 1005.85 1005.76 1006.01 1005.80 1005.72 1005.81 1006.16 1006.58 1006.68 1006.61 1006.57 1006.62 1007.97 1008.35 1008.56 1008.95 1009.34 1010.06 1010.83 1011.43 1012.00 1012.26 1012.45 1012.76 1012.88 1013.13 1013.35 1013.43 1013.75 1013.79 1014.20 1014.59 1014.67 1014.70 1014.86 1015.05 1015.19 1015.40 1015.74 1015.88 1016.07 1016.33 1016.59
1008.92 1008.52 1008.06 1006.72 1006.28 1005.86 1006.43 1005.99 1005.31 1005.21 1005.81 1006.26 1006.25 1006.55 1006.62 1006.61 1006.70 1006.81 1006.92 1007.70 1008.40 1008.92 1009.43 1009.60 1010.41 1011.35 1011.86 1011.67 1012.07 1012.27 1012.53 1012.81 1012.70 1013.14 1013.29 1013.43 1013.72 1014.39 1014.37 1014.65 1014.67 1014.52 1015.14 1015.37 1015.40 1015.87 1015.98 1016.05 1016.16
1009.84 1009.41 1008.72 1007.40 1006.60 1006.59 1006.74 1006.17 1005.21 1005.04 1005.65 1006.05 1006.14 1006.15 1006.38 1006.32 1006.64 1006.71 1006.71 1007.21 1007.63 1008.30 1009.05 1009.60 1010.07 1010.78 1011.28 1011.82 1011.86 1012.09 1012.07 1012.33 1012.53 1012.88 1013.05 1013.25 1013.67 1013.73 1013.81 1014.26 1014.34 1014.62 1014.26 1014.94 1015.05 1015.65 1015.88 1016.37 1016.25
1009.98 1009.54 1008.78 1008.07 1006.66 1006.65 1006.37 1005.77 1005.36 1004.95 1005.46 1005.75 1005.90 1005.78 1005.91 1006.11 1005.82 1005.68 1006.11 1006.33 1006.96 1007.48 1008.17 1008.76 1009.40 1010.02 1010.85 1011.49 1011.91 1012.19 1012.51 1012.68 1012.73 1012.97 1013.09 1012.97 1013.02 1013.35 1013.60 1014.24 1014.23 1014.44 1015.02 1015.41 1015.42 1015.74 1016.11 1016.00 1016.22
1009.59 1009.41 1008.86 1007.74 1006.89 1006.48 1006.31 1006.12 1005.70 1005.13 1005.34 1005.60 1005.63 1005.81 1005.92 1005.72 1005.12 1005.28 1005.78 1005.92 1006.41 1007.02 1007.62 1008.17 1008.87 1009.47 1010.19 1010.88 1011.61 1012.23 1012.33 1012.69 1012.88 1012.74 1012.45 1012.41 1012.62 1012.90 1013.37 1013.86 1014.10 1014.27 1014.80 1014.74 1014.88 1015.05 1015.79 1016.29 1016.46
1008.84 1008.71 1008.04 1007.33 1006.34 1006.61 1006.41 1006.38 1005.84 1005.75 1005.57 1005.20 1005.17 1005.38 1005.10 1005.11 1004.95 1004.87 1005.11 1005.61 1006.04 1006.07 1006.75 1007.38 1007.95 1008.67 1009.11 1009.57 1010.21 1010.47 1011.49 1012.25 1012.10 1012.51 1012.47 1012.41 1012.64 1012.77 1013.26 1013.76 1013.99 1014.51 1014.45 1014.51 1014.88 1015.34 1015.94 1016.33 1016.49
1008.01 1007.55 1007.58 1007.30 1006.81 1006.94 1006.95 1006.91 1006.50 1005.91 1005.53 1005.14 1004.84 1004.77 1004.71 1004.69 1004.45 1004.14 1004.43 1004.74 1005.35 1005.89 1006.18 1006.64 1007.21 1007.82 1008.33 1008.62 1009.50 1010.43 1011.16 1012.27 1012.83 1012.86 1012.72 1012.66 1012.64 1012.76 1012.86 1013.29 1013.83 1014.11 1014.29 1014.56 1014.93 1015.24 1015.64 1016.22 1016.51
1006.98 1006.69 1006.98 1007.34 1007.72 1008.11 1007.76 1007.61 1007.11 1006.38 1005.96 1005.40 1004.74 1004.51 1004.02 1003.65 1003.29 1002.97 1003.09 1003.86 1004.31 1004.80 1005.21 1005.86 1006.60 1007.24 1007.76 1008.26 1008.98 1009.56 1010.52 1011.61 1011.49 1011.46 1011.84 1012.25 1012.31 1012.38 1012.51 1012.74 1013.09 1013.64 1014.02 1014.42 1014.64 1014.88 1015.37 1015.89 1016.35
1006.86 1006.38 1006.93 1007.49 1008.17 1008.62 1008.66 1008.51 1007.10 1007.01 1006.66 1005.80 1005.26 1004.54 1003.90 1003.26 1002.25 1001.98 1002.06 1002.47 1003.10 1003.84 1004.64 1005.18 1006.02 1006.66 1007.13 1007.88 1008.25 1008.97 1009.94 1010.43 1010.55 1011.20 1011.56 1011.95 1012.17 1012.04 1012.05 1012.47 1012.89 1013.31 1013.70 1014.05 1014.39 1014.79 1015.17 1015.45 1015.79
1006.42 1006.88 1007.58 1008.51 1009.19 1009.17 1009.38 1009.32 1007.49 1007.97 1007.09 1006.39 1005.43 1004.83 1004.32 1003.65 1001.96 1001.26 1001.35 1001.98 1002.93 1003.46 1004.16 1004.87 1005.56 1006.24 1006.70 1007.39 1007.91 1008.39 1009.14 1009.96 1010.56 1010.98 1011.36 1011.65 1011.79 1012.00 1012.07 1012.16 1012.64 1013.03 1013.49 1013.86 1014.14 1014.44 1014.74 1015.12 1015.43
1006.91 1008.05 1009.42 1010.37 1010.74 1009.86 1009.96 1009.77 1008.78 1008.18 1008.03 1008.02 1007.11 1006.59 1005.90 1005.14 1003.66 1003.18 1002.10 1002.79 1003.36 1003.74 1004.21 1004.64 1005.32 1005.97 1006.28 1006.75 1007.45 1007.92 1008.43 1009.21 1009.76 1010.17 1010.59 1011.00 1011.56 1011.83 1011.83 1011.93 1012.42 1012.81 1013.16 1013.58 1013.95 1014.26 1014.53 1014.86 1015.19
1008.12 1009.09 1010.73 1011.60 1012.11 1011.18 1010.86 1009.87 1009.06 1008.74 1008.60 1008.39 1007.98 1007.86 1006.75 1006.33 1005.97 1005.03 1004.62 1003.34 1003.37 1003.68 1004.23 1004.70 1005.26 1005.56 1006.01 1006.46 1006.77 1007.36 1007.77 1008.35 1009.09 1009.44 1010.01 1010.01 1010.40 1010.63 1010.98 1011.50 1011.94 1012.33 1012.84 1013.28 1013.69 1013.97 1014.20 1014.41 1014.70
1009.33 1010.42 1010.91 1011.96 1012.14 1012.17 1011.41 1010.15 1009.26 1009.17 1009.05 1008.56 1008.57 1008.46 1008.37 1008.06 1007.53 1006.84 1006.15 1004.78 1004.96 1004.05 1004.31 1004.36 1004.76 1005.16 1005.56 1006.13 1006.53 1006.92 1007.43 1007.85 1008.51 1008.81 1009.00 1009.50 1009.84 1010.16 1010.58 1010.96 1011.51 1012.00 1012.42 1012.78 1013.23 1013.64 1013.97 1014.15 1014.40
1010.16 1010.99 1012.04 1013.52 1014.25 1013.87 1012.69 1011.59 1010.69 1010.66 1010.37 1010.12 1009.39 1009.60 1009.43 1008.83 1008.53 1007.96 1007.44 1007.18 1005.51 1006.16 1004.98 1004.30 1004.35 1004.68 1005.05 1005.72 1006.23 1006.54 1007.24 1007.63 1008.01 1008.51 1008.98 1009.19 1009.43 1009.85 1010.32 1010.81 1011.23 1011.62 1011.98 1012.44 1012.94 1013.43 1013.69 1013.96 1014.20
1011.91 1012.43 1013.37 1014.58 1015.13 1014.86 1014.47 1012.91 1011.93 1012.13 1011.60 1011.14 1011.04 1010.80 1010.42 1009.76 1009.13 1008.51 1008.62 1008.16 1007.86 1006.72 1006.67 1006.38 1006.32 1006.07 1005.42 1005.39 1005.76 1006.36 1006.98 1007.58 1008.07 1008.43 1008.67 1009.17 1009.60 1009.82 1010.06 1010.44 1010.80 1011.22 1011.69 1012.22 1012.76 1013.15 1013.36 1013.78 1014.04
1012.62 1013.88 1014.66 1015.89 1016.19 1016.06 1015.50 1013.84 1012.51 1012.28 1012.42 1012.49 1012.28 1011.70 1011.10 1010.75 1010.07 1009.28 1008.51 1008.09 1009.07 1008.92 1007.37 1006.86 1006.90 1007.08 1006.56 1006.80 1006.46 1006.10 1006.36 1006.58 1007.69 1008.31 1008.61 1008.97 1009.29 1009.73 1009.84 1010.35 1010.76 1011.16 1011.64 1012.19 1012.57 1012.89 1013.08 1013.59 1013.89
Wind_Speed
7 6 1 4 5 6 3 7 1 7 6 6 10 9 7 6 7 7 4 10 15 10 8 11 14 16 16 15 15 14 13 13 14 14 14 14 14 15 14 13 13 12 14 13 13 12 12 13 16
4 4 5 2 6 3 6 5 6 5 13 19 17 12 4 3 3 3 6 15 15 10 5 8 14 15 16 16 15 14 13 12 13 13 13 14 14 13 13 12 12 12 13 12 11 10 10 11 13
4 2 4 4 4 5 5 5 6 14 19 5 7 2 4 5 3 6 3 18 16 10 8 9 11 13 14 15 15 14 13 12 12 13 12 12 12 12 12 11 11 11 12 11 9 8 6 8 10
3 5 5 4 5 9 5 10 15 14 8 5 7 7 1 3 2 6 14 16 13 8 9 13 16 13 13 14 14 14 13 12 12 12 12 11 11 10 10 9 9 9 10 10 8 6 5 6 9
4 3 3 2 6 5 6 9 8 6 7 9 5 7 1 6 2 8 10 14 13 8 6 9 14 15 14 14 15 14 14 12 12 11 11 10 9 9 9 9 9 8 8 7 6 5 5 5 7
5 3 4 3 5 7 8 10 4 8 11 6 6 7 1 7 11 7 2 8 12 14 9 9 12 11 13 13 13 13 13 12 11 10 10 9 8 8 7 6 7 7 6 6 5 3 3 4 4
4 4 4 4 5 9 6 6 4 13 10 5 16 7 4 8 3 5 6 6 10 12 11 9 9 12 13 12 12 11 11 12 11 10 10 10 8 8 8 7 7 6 6 5 5 5 5 4 3
5 4 3 2 1 8 9 2 5 5 5 15 16 8 5 9 11 8 7 8 3 11 11 11 11 10 11 11 16 15 14 13 13 13 12 12 10 9 8 8 7 7 6 6 6 6 6 6 5
4 4 4 5 2 6 10 7 6 4 10 4 5 12 18 21 15 14 6 7 6 9 11 11 10 11 9 10 11 13 15 14 13 11 11 9 4 6 8 9 10 9 8 6 6 7 7 6 6
5 4 8 8 5 7 8 5 8 4 5 6 12 17 25 21 12 10 11 7 4 7 10 10 12 9 9 9 10 9 10 7 6 6 6 4 5 4 6 7 9 10 10 9 7 7 7 6 3
3 7 8 15 13 2 6 6 7 2 5 5 14 24 26 24 16 15 14 17 17 8 10 11 8 10 10 9 8 4 4 5 5 7 7 6 5 4 3 2 2 2 7 3 5 4 3 4 3
3 9 8 16 5 4 4 2 4 5 3 2 20 25 18 17 18 14 14 20 14 17 12 10 9 10 7 6 7 9 8 7 6 7 8 7 4 4 4 4 4 4 3 5 5 3 4 5 5
6 12 11 16 8 8 3 4 3 6 6 5 8 22 19 15 11 10 13 18 14 14 15 13 12 9 6 7 6 5 6 5 6 7 7 4 4 4 5 5 5 4 3 4 4 5 5 6 6
4 6 10 6 4 3 4 4 5 6 7 4 7 7 11 13 12 10 6 11 17 16 15 14 14 10 9 7 7 6 5 6 5 5 5 7 6 5 5 4 5 6 6 4 5 4 4 6 6
6 6 8 4 2 2 4 8 4 9 6 9 2 8 8 8 6 7 12 10 18 16 17 16 14 8 9 10 8 6 5 5 7 6 8 7 6 6 3 3 5 5 5 5 5 5 4 4 4
6 2 4 7 5 6 7 12 13 9 5 8 10 8 9 8 9 8 6 10 10 15 17 17 13 12 10 7 9 6 8 6 5 6 7 7 6 6 6 4 3 3 3 5 4 5 6 7 5
6 4 6 12 6 6 7 11 16 8 6 8 9 9 9 8 7 8 10 11 15 17 16 16 14 13 9 7 6 8 9 7 6 4 5 4 5 6 5 3 2 2 2 3 3 2 3 1 1
7 5 4 7 13 2 12 19 10 7 6 10 9 10 10 10 12 11 12 10 15 17 19 19 14 14 12 8 5 5 6 3 3 4 5 8 5 7 5 4 4 3 3 3 4 3 1 1 2
3 5 9 6 7 2 4 6 7 10 3 7 8 9 9 10 12 9 10 11 9 9 12 20 17 15 10 4 5 6 6 4 3 4 7 7 5 6 5 4 4 1 5 3 2 2 4 2 2
13 9 6 7 6 2 7 7 8 7 8 9 10 9 10 8 9 10 10 9 12 15 15 15 20 17 14 11 5 5 7 5 7 6 8 7 6 5 4 4 3 5 3 2 3 3 2 1 2
6 1 5 7 6 4 1 6 4 7 4 7 8 9 7 12 14 13 11 12 10 12 14 16 16 18 13 12 5 4 5 6 2 3 3 5 7 8 9 8 7 6 4 3 3 4 5 2 0
4 7 6 4 4 3 3 7 6 5 10 8 11 10 11 11 14 14 10 9 14 16 14 16 15 16 12 11 9 8 6 9 6 10 7 6 8 11 10 7 7 6 4 4 3 3 3 4 3
9 5 5 3 1 3 5 3 6 6 10 12 12 15 12 14 15 17 12 15 16 16 15 13 13 14 12 11 12 9 6 4 5 4 8 7 8 7 9 8 7 6 5 5 5 3 4 3 3
6 4 4 5 3 7 5 4 9 4 7 8 10 12 19 19 16 9 11 10 8 9 12 11 12 14 11 12 9 12 11 7 8 5 7 8 7 7 9 9 7 6 6 6 5 5 5 5 4
11 8 5 7 4 10 4 4 6 6 10 11 13 17 19 20 22 8 9 8 6 8 9 9 11 9 13 14 10 10 11 10 13 10 10 10 7 5 10 9 7 5 6 6 5 5 5 4 3
4 6 6 5 4 9 3 5 6 6 10 13 16 13 18 21 19 22 11 5 9 10 8 8 8 8 8 11 13 8 9 7 6 9 9 11 11 11 10 10 9 8 8 7 6 4 4 4 4
4 5 4 3 4 1 6 6 3 11 16 18 17 15 13 14 14 17 19 10 9 9 10 12 10 8 8 8 7 8 7 7 8 8 6 6 6 5 7 9 9 8 8 8 7 4 4 3 3
6 2 5 4 3 6 3 2 3 10 12 14 19 13 9 8 11 14 15 17 8 12 7 6 12 12 10 9 7 7 7 6 6 6 7 8 6 6 8 9 10 8 8 7 7 5 4 3 2
6 2 1 3 5 4 1 6 4 4 7 13 10 12 7 8 6 6 9 10 13 11 12 12 11 8 2 7 7 8 7 6 5 6 6 6 4 7 9 12 10 8 8 7 6 5 5 4 3
2 4 6 6 6 3 5 7 8 17 14 13 12 12 15 8 6 7 5 9 7 8 7 8 12 10 8 6 4 8 9 10 9 7 7 8 7 5 6 6 6 6 7 7 7 7 5 5 4
Wind_Direction
312 298 108 41 48 62 289 281 234 60 49 294 119 146 177 148 160 202 207 156 152 165 171 156 153 143 140 139 136 132 127 121 120 116 113 112 112 113 115 115 114 115 118 121 124 126 125 119 119
319 336 41 60 85 45 285 263 10 99 131 116 109 121 158 197 289 194 143 138 138 154 140 152 159 148 144 143 142 138 134 130 125 122 123 123 122 122 121 121 122 121 120 119 123 127 132 122 119
286 85 74 90 113 171 216 253 86 154 155 178 124 26 171 162 321 10 91 126 131 147 138 152 158 149 146 147 146 141 138 138 131 126 128 126 126 126 125 125 122 124 124 123 124 129 139 124 117
14 10 24 90 236 247 231 283 282 162 234 307 123 115 33 0 76 4 125 121 129 146 145 159 153 152 147 148 147 140 144 145 137 135 134 133 133 127 123 119 118 120 122 123 128 135 137 127 115
30 59 40 333 270 283 265 260 250 95 121 167 165 148 125 4 222 104 122 133 142 140 142 150 150 152 155 155 152 153 151 152 146 140 135 135 134 130 128 127 121 117 119 120 129 144 149 141 118
13 89 49 266 286 285 287 258 308 112 152 150 96 110 169 31 40 29 97 158 157 144 142 147 145 151 152 155 156 155 152 149 144 140 135 133 136 133 126 119 116 119 118 120 131 158 174 151 126
124 84 221 258 279 326 288 289 129 142 165 166 147 102 60 39 124 156 184 163 162 143 139 143 142 148 146 151 151 153 151 148 148 145 146 147 148 144 140 140 137 136 136 132 141 144 161 169 158
127 98 291 268 331 267 289 328 168 91 35 148 156 130 177 226 152 208 199 122 176 153 148 151 152 156 155 159 158 157 156 155 156 159 157 153 157 158 156 156 160 158 161 162 163 170 175 185 186
111 50 261 254 279 291 326 337 343 35 98 186 147 127 168 179 188 179 92 142 164 185 163 154 161 170 157 147 154 154 162 162 162 162 162 161 158 170 174 173 177 174 174 179 187 188 189 202 206
121 149 239 209 244 284 296 39 310 79 78 34 78 112 153 173 200 149 153 151 200 217 176 174 171 144 149 160 158 159 166 164 157 159 163 157 175 189 186 191 189 185 183 184 190 199 199 209 217
217 213 237 263 253 205 268 13 340 50 70 164 146 150 163 178 186 175 170 182 201 169 192 178 161 152 174 164 168 153 139 167 161 163 169 178 180 186 198 188 204 209 205 191 188 189 190 210 227
239 260 239 262 258 222 227 266 19 4 8 199 158 163 169 178 183 170 173 201 165 169 190 183 155 171 183 167 172 171 164 176 175 180 182 178 177 187 196 191 191 183 193 201 199 206 196 203 229
181 260 260 245 256 228 195 144 215 289 296 56 112 151 176 187 188 184 197 208 166 171 177 174 160 172 169 170 157 179 178 172 183 169 189 184 172 182 191 191 186 188 195 205 207 207 209 204 216
243 287 275 276 274 260 233 228 129 275 295 348 141 179 163 167 171 152 148 144 164 163 178 177 174 162 163 183 168 181 163 168 172 166 171 177 183 169 178 195 192 190 194 195 203 214 235 239 222
287 312 325 295 304 264 14 314 227 228 270 291 244 188 188 195 204 242 154 161 167 172 171 180 171 155 172 183 180 178 168 165 177 165 178 178 172 177 174 163 191 206 215 191 207 221 209 218 221
347 53 3 285 323 272 126 267 261 240 176 251 260 203 190 190 197 215 211 162 169 159 176 181 177 174 187 178 192 169 179 172 166 173 187 190 174 156 149 172 165 132 192 207 193 222 229 235 215
358 255 293 305 203 246 169 263 261 253 216 248 244 218 207 203 217 232 202 177 164 170 173 178 180 178 176 194 161 168 166 171 180 174 193 192 169 194 199 160 210 269 73 252 180 211 195 232 245
224 238 285 260 284 234 253 242 248 247 194 235 250 202 203 204 215 214 200 205 166 170 173 178 178 175 170 167 146 146 148 124 132 172 195 210 191 184 195 151 195 224 173 204 150 151 82 71 337
267 246 253 252 242 327 295 283 245 250 268 244 243 212 235 229 228 214 213 199 191 164 157 171 167 174 158 153 149 148 159 161 180 200 203 206 209 166 164 183 181 198 202 178 159 65 92 42 34
252 227 274 271 291 82 295 281 258 250 253 237 217 245 230 240 242 235 213 193 182 175 176 164 172 169 171 169 181 158 146 180 183 185 207 202 197 196 181 192 208 219 204 156 155 125 102 122 199
245 253 261 253 335 338 10 322 298 290 243 305 311 274 264 228 230 229 223 192 182 179 173 170 172 173 175 171 126 87 74 83 87 222 218 208 189 189 199 191 195 194 185 187 180 150 131 144 256
210 235 239 272 52 279 74 275 293 293 325 322 307 302 280 259 245 230 202 184 183 189 180 171 170 172 178 164 161 153 153 165 198 186 193 196 191 194 194 187 189 185 178 185 196 167 162 149 209
241 251 224 217 294 27 347 7 271 16 326 293 302 287 286 265 248 230 192 192 190 176 179 173 167 170 171 172 172 160 154 179 156 171 174 185 198 202 195 187 187 182 178 193 182 164 188 181 160
269 282 25 44 84 273 178 159 296 305 259 310 293 344 359 334 310 225 192 159 171 165 168 170 163 178 172 175 174 171 168 164 158 162 176 190 194 198 203 192 180 182 178 180 188 193 188 187 198
42 44 353 341 339 261 162 269 259 290 360 11 9 12 13 7 8 326 153 158 154 167 172 167 170 182 179 176 173 181 182 166 174 181 188 180 186 192 201 186 180 180 183 183 175 181 197 186 193
306 127 157 213 236 282 325 249 252 90 40 37 28 16 16 12 6 1 343 202 184 176 168 166 171 182 182 181 179 177 181 183 175 178 179 188 189 193 185 187 184 178 172 174 174 180 193 190 209
330 51 245 196 272 303 215 281 41 29 22 11 7 18 14 16 4 0 349 360 308 165 188 185 181 184 171 178 170 171 178 168 179 194 171 175 168 181 172 174 172 172 168 163 163 174 186 188 216
111 265 23 19 288 287 263 213 237 21 6 4 347 357 348 5 16 17 9 354 28 356 327 199 182 174 170 164 171 168 179 171 162 159 172 178 185 179 172 173 173 167 162 161 162 173 181 191 221
12 32 85 151 169 215 313 268 149 87 345 348 343 340 331 345 357 24 25 14 356 31 26 26 16 348 163 165 160 156 161 168 170 166 179 179 184 187 172 174 166 165 164 162 164 186 175 200 242
144 65 93 107 292 266 189 250 7 22 24 17 358 353 346 312 318 349 35 51 4 341 26 42 18 359 13 347 293 182 180 166 165 178 184 182 179 186 158 152 154 155 161 173 180 185 178 198 226